When you browse on this site, cookies collect data to enhance your experience and personalize the content and advertising you see.
Visit our Privacy Policy to learn more. By continuing to use the site, you agree to this use of cookies and data.
  • In Belgium
  • List of Countries
  • For 7 days
  • Water Temperature
  • Satellite Maps
  • Weather Map
  • Weather Widgets
  • user-avatar
    Login

    Hourly Weather Gaborone

    Today, 19 July, Friday

    Time Temperature Precipitation Wind Pressure Humidity
    00:00 +14°C° 0 mm 2 mps 679 mmHg 27%
    01:00 +13°C° 0 mm 2 mps 679 mmHg 26%
    02:00 +13°C° 0 mm 2 mps 679 mmHg 27%
    03:00 +12°C° 0 mm 2 mps 679 mmHg 27%
    04:00 +12°C° 0 mm 2 mps 678 mmHg 27%
    05:00 +12°C° 0 mm 2 mps 678 mmHg 27%
    06:00 +12°C° 0 mm 1 mps 679 mmHg 26%
    07:00 +13°C° 0 mm 1 mps 679 mmHg 25%
    08:00 +14°C° 0 mm 1 mps 680 mmHg 23%
    09:00 +18°C° 0 mm 2 mps 680 mmHg 19%
    10:00 +21°C° 0 mm 2 mps 681 mmHg 15%
    11:00 +26°C° 0 mm 3 mps 682 mmHg 11%
    12:00 +27°C° 0 mm 3 mps 681 mmHg 10%
    13:00 +28°C° 0 mm 4 mps 680 mmHg 8%
    14:00 +30°C° 0 mm 4 mps 680 mmHg 7%
    15:00 +29°C° 0 mm 4 mps 679 mmHg 7%
    16:00 +28°C° 0 mm 3 mps 679 mmHg 7%
    17:00 +27°C° 0 mm 3 mps 678 mmHg 8%
    18:00 +24°C° 0 mm 3 mps 678 mmHg 10%
    19:00 +20°C° 0 mm 3 mps 678 mmHg 12%
    20:00 +17°C° 0 mm 3 mps 678 mmHg 15%
    21:00 +16°C° 0 mm 3 mps 678 mmHg 16%
    22:00 +14°C° 0 mm 3 mps 678 mmHg 17%
    23:00 +13°C° 0 mm 3 mps 678 mmHg 19%

    Tomorrow, 20 July, Saturday

    Time Temperature Precipitation Wind Pressure Humidity
    00:00 +12°C° 0 mm 3 mps 678 mmHg 20%
    01:00 +11°C° 0 mm 3 mps 678 mmHg 20%
    02:00 +10°C° 0 mm 2 mps 677 mmHg 21%
    03:00 +9°C° 0 mm 2 mps 677 mmHg 25%
    04:00 +9°C° 0 mm 2 mps 677 mmHg 28%
    05:00 +8°C° 0 mm 2 mps 677 mmHg 32%
    06:00 +9°C° 0 mm 2 mps 678 mmHg 36%
    07:00 +9°C° 0 mm 2 mps 678 mmHg 41%
    08:00 +10°C° 0 mm 2 mps 679 mmHg 45%
    09:00 +13°C° 0 mm 3 mps 680 mmHg 38%
    10:00 +18°C° 0 mm 3 mps 681 mmHg 31%
    11:00 +21°C° 0 mm 4 mps 681 mmHg 23%
    12:00 +23°C° 0 mm 4 mps 681 mmHg 20%
    13:00 +25°C° 0 mm 4 mps 680 mmHg 16%
    14:00 +26°C° 0 mm 4 mps 680 mmHg 12%
    15:00 +26°C° 0 mm 4 mps 679 mmHg 13%
    16:00 +25°C° 0 mm 3 mps 679 mmHg 14%
    17:00 +24°C° 0 mm 3 mps 679 mmHg 15%
    18:00 +20°C° 0 mm 3 mps 679 mmHg 19%
    19:00 +17°C° 0 mm 2 mps 679 mmHg 22%
    20:00 +14°C° 0 mm 2 mps 679 mmHg 26%
    21:00 +13°C° 0 mm 2 mps 679 mmHg 28%
    22:00 +12°C° 0 mm 2 mps 679 mmHg 30%
    23:00 +10°C° 0 mm 2 mps 680 mmHg 32%

    Day after tomorrow, 21 July, Sunday

    Time Temperature Precipitation Wind Pressure Humidity
    00:00 +11°C° 0 mm 1 mps 679 mmHg 34%
    01:00 +10°C° 0 mm 1 mps 679 mmHg 36%
    02:00 +9°C° 0 mm 1 mps 679 mmHg 39%
    03:00 +8°C° 0 mm 1 mps 679 mmHg 41%
    04:00 +8°C° 0 mm 1 mps 679 mmHg 44%
    05:00 +6°C° 0 mm 0 mps 679 mmHg 47%
    06:00 +8°C° 0 mm 1 mps 680 mmHg 45%
    07:00 +9°C° 0 mm 1 mps 680 mmHg 44%
    08:00 +9°C° 0 mm 1 mps 681 mmHg 42%
    09:00 +11°C° 0 mm 3 mps 682 mmHg 41%
    10:00 +14°C° 0 mm 4 mps 682 mmHg 41%
    11:00 +16°C° 0 mm 5 mps 683 mmHg 40%
    12:00 +17°C° 0 mm 5 mps 682 mmHg 42%
    13:00 +17°C° 0 mm 6 mps 682 mmHg 44%
    14:00 +19°C° 0 mm 6 mps 681 mmHg 46%
    15:00 +19°C° 0 mm 5 mps 681 mmHg 46%
    16:00 +17°C° 0 mm 5 mps 681 mmHg 46%
    17:00 +18°C° 0 mm 4 mps 681 mmHg 46%
    18:00 +15°C° 0 mm 4 mps 681 mmHg 54%
    19:00 +13°C° 0 mm 3 mps 681 mmHg 62%
    20:00 +10°C° 0 mm 2 mps 681 mmHg 70%
    21:00 +10°C° 0 mm 3 mps 681 mmHg 71%
    22:00 +9°C° 0 mm 3 mps 682 mmHg 72%
    23:00 +9°C° 0 mm 3 mps 682 mmHg 74%

    22 July, Monday

    Time Temperature Precipitation Wind Pressure Humidity
    00:00 +8°C° 0 mm 3 mps 682 mmHg 79%
    01:00 +7°C° 0 mm 3 mps 682 mmHg 83%
    02:00 +7°C° 0 mm 3 mps 681 mmHg 88%
    03:00 +6°C° 0 mm 2 mps 681 mmHg 90%
    04:00 +5°C° 0 mm 2 mps 681 mmHg 92%
    05:00 +4°C° 0 mm 2 mps 681 mmHg 94%
    06:00 +5°C° 0 mm 2 mps 681 mmHg 93%
    07:00 +5°C° 0 mm 2 mps 681 mmHg 93%
    08:00 +5°C° 0 mm 2 mps 682 mmHg 92%
    09:00 +8°C° 0 mm 3 mps 682 mmHg 77%
    10:00 +11°C° 0 mm 3 mps 682 mmHg 62%
    11:00 +15°C° 0 mm 4 mps 682 mmHg 47%
    12:00 +18°C° 0 mm 3 mps 682 mmHg 39%
    13:00 +20°C° 0 mm 3 mps 681 mmHg 32%
    14:00 +22°C° 0 mm 3 mps 680 mmHg 25%
    15:00 +22°C° 0 mm 3 mps 680 mmHg 24%
    16:00 +21°C° 0 mm 2 mps 679 mmHg 23%
    17:00 +21°C° 0 mm 2 mps 679 mmHg 23%
    18:00 +19°C° 0 mm 2 mps 679 mmHg 28%
    19:00 +16°C° 0 mm 2 mps 678 mmHg 33%
    20:00 +13°C° 0 mm 2 mps 678 mmHg 39%
    21:00 +12°C° 0 mm 2 mps 678 mmHg 43%
    22:00 +11°C° 0 mm 1 mps 678 mmHg 48%
    23:00 +10°C° 0 mm 1 mps 678 mmHg 52%

    23 July, Tuesday

    Time Temperature Precipitation Wind Pressure Humidity
    00:00 +9°C° 0 mm 1 mps 678 mmHg 56%
    01:00 +8°C° 0 mm 0 mps 677 mmHg 60%
    02:00 +7°C° 0 mm 0 mps 677 mmHg 63%
    03:00 +7°C° 0 mm 0 mps 677 mmHg 65%
    04:00 +7°C° 0 mm 1 mps 676 mmHg 66%
    05:00 +7°C° 0 mm 1 mps 676 mmHg 67%
    06:00 +8°C° 0 mm 1 mps 677 mmHg 64%
    07:00 +9°C° 0 mm 1 mps 677 mmHg 61%
    08:00 +9°C° 0 mm 1 mps 678 mmHg 58%
    09:00 +13°C° 0 mm 1 mps 678 mmHg 48%
    10:00 +17°C° 0 mm 2 mps 679 mmHg 38%
    11:00 +21°C° 0 mm 3 mps 679 mmHg 28%
    12:00 +24°C° 0 mm 3 mps 679 mmHg 23%
    13:00 +27°C° 0 mm 4 mps 678 mmHg 17%
    14:00 +29°C° 0 mm 4 mps 678 mmHg 12%
    15:00 +29°C° 0 mm 4 mps 677 mmHg 12%
    16:00 +28°C° 0 mm 3 mps 677 mmHg 12%
    17:00 +27°C° 0 mm 3 mps 676 mmHg 13%
    18:00 +25°C° 0 mm 3 mps 676 mmHg 16%
    19:00 +21°C° 0 mm 2 mps 676 mmHg 20%
    20:00 +18°C° 0 mm 2 mps 675 mmHg 23%
    21:00 +17°C° 0 mm 2 mps 675 mmHg 25%
    22:00 +16°C° 0 mm 2 mps 675 mmHg 26%
    23:00 +16°C° 0 mm 2 mps 675 mmHg 27%

    24 July, Wednesday

    Time Temperature Precipitation Wind Pressure Humidity
    00:00 +16°C° 0 mm 3 mps 675 mmHg 28%
    01:00 +16°C° 0 mm 3 mps 675 mmHg 29%
    02:00 +16°C° 0 mm 3 mps 675 mmHg 30%
    03:00 +14°C° 0 mm 4 mps 676 mmHg 29%
    04:00 +13°C° 0 mm 4 mps 677 mmHg 28%
    05:00 +13°C° 0 mm 4 mps 677 mmHg 28%
    06:00 +12°C° 0 mm 5 mps 678 mmHg 38%
    07:00 +9°C° 0 mm 6 mps 679 mmHg 49%
    08:00 +8°C° 0 mm 6 mps 680 mmHg 59%
    09:00 +10°C° 0 mm 6 mps 680 mmHg 50%
    10:00 +13°C° 0 mm 6 mps 681 mmHg 40%
    11:00 +15°C° 0 mm 6 mps 681 mmHg 31%
    12:00 +17°C° 0 mm 6 mps 681 mmHg 25%
    13:00 +19°C° 0 mm 6 mps 681 mmHg 19%
    14:00 +21°C° 0 mm 5 mps 680 mmHg 13%
    15:00 +21°C° 0 mm 5 mps 680 mmHg 13%
    16:00 +20°C° 0 mm 4 mps 680 mmHg 12%
    17:00 +20°C° 0 mm 4 mps 680 mmHg 12%
    18:00 +17°C° 0 mm 3 mps 681 mmHg 15%
    19:00 +13°C° 0 mm 3 mps 681 mmHg 18%
    20:00 +10°C° 0 mm 3 mps 681 mmHg 21%
    21:00 +9°C° 0 mm 3 mps 681 mmHg 23%
    22:00 +8°C° 0 mm 3 mps 681 mmHg 26%
    23:00 +7°C° 0 mm 3 mps 681 mmHg 28%
    Show more